TimeEDT,TemperatureF,Dew PointF,Humidity,Sea Level PressureIn,VisibilityMPH,Wind Direction,Wind SpeedMPH,Gust SpeedMPH,PrecipitationIn,Events,Conditions,WindDirDegrees,DateUTC
12:53 AM,37.9,27.0,65,30.22,10.0,Calm,Calm,-,N/A,,Clear,0,2014-03-23 04:53:00
1:53 AM,36.0,27.0,70,30.21,10.0,NE,3.5,-,N/A,,Clear,40,2014-03-23 05:53:00
2:53 AM,35.1,28.9,78,30.22,10.0,Calm,Calm,-,N/A,,Clear,0,2014-03-23 06:53:00
3:53 AM,37.0,27.0,67,30.21,10.0,North,8.1,-,N/A,,Partly Cloudy,350,2014-03-23 07:53:00
4:53 AM,37.0,28.0,70,30.23,10.0,North,8.1,-,N/A,,Mostly Cloudy,350,2014-03-23 08:53:00
5:51 AM,35.6,26.6,70,30.23,10.0,North,11.5,-,N/A,,Overcast,10,2014-03-23 09:51:00
5:53 AM,36.0,27.0,70,30.24,10.0,North,10.4,-,N/A,,Overcast,360,2014-03-23 09:53:00
6:49 AM,35.6,21.2,56,30.25,10.0,North,11.5,-,N/A,,Overcast,350,2014-03-23 10:49:00
6:53 AM,35.1,21.9,59,30.26,10.0,North,12.7,-,N/A,,Overcast,350,2014-03-23 10:53:00
7:53 AM,34.0,21.0,59,30.27,10.0,North,10.4,-,N/A,,Overcast,10,2014-03-23 11:53:00
8:53 AM,33.1,21.9,64,30.29,10.0,North,12.7,-,N/A,,Overcast,350,2014-03-23 12:53:00
9:53 AM,33.1,21.9,64,30.31,10.0,North,13.8,-,N/A,,Overcast,350,2014-03-23 13:53:00
9:55 AM,33.1,21.9,64,30.30,10.0,North,13.8,-,N/A,,Overcast,350,2014-03-23 13:55:00
10:09 AM,33.1,19.9,59,30.30,10.0,North,11.5,-,N/A,,Overcast,360,2014-03-23 14:09:00
10:53 AM,34.0,15.1,46,30.33,10.0,North,11.5,-,N/A,,Mostly Cloudy,350,2014-03-23 14:53:00
11:53 AM,37.0,17.1,44,30.34,10.0,North,10.4,-,N/A,,Scattered Clouds,350,2014-03-23 15:53:00
12:53 PM,37.9,16.0,41,30.32,10.0,NNW,13.8,18.4,N/A,,Clear,340,2014-03-23 16:53:00
1:53 PM,39.0,16.0,39,30.32,10.0,NNW,13.8,21.9,N/A,,Mostly Cloudy,340,2014-03-23 17:53:00
2:53 PM,39.9,16.0,38,30.31,10.0,NNW,12.7,21.9,N/A,,Mostly Cloudy,340,2014-03-23 18:53:00
3:53 PM,39.0,15.1,38,30.30,10.0,NNE,12.7,23.0,N/A,,Mostly Cloudy,20,2014-03-23 19:53:00
4:53 PM,39.0,15.1,38,30.30,10.0,North,8.1,-,N/A,,Mostly Cloudy,350,2014-03-23 20:53:00
5:53 PM,39.0,15.1,38,30.30,10.0,North,11.5,17.3,N/A,,Partly Cloudy,10,2014-03-23 21:53:00
6:53 PM,36.0,14.0,41,30.31,10.0,North,10.4,-,N/A,,Mostly Cloudy,360,2014-03-23 22:53:00
7:53 PM,35.1,15.1,44,30.33,10.0,North,9.2,-,N/A,,Overcast,10,2014-03-23 23:53:00
8:53 PM,33.1,12.9,43,30.34,10.0,North,9.2,-,N/A,,Mostly Cloudy,10,2014-03-24 00:53:00
9:53 PM,30.9,14.0,50,30.36,10.0,NNE,9.2,-,N/A,,Scattered Clouds,30,2014-03-24 01:53:00
10:53 PM,28.0,14.0,56,30.37,10.0,NNE,5.8,-,N/A,,Clear,30,2014-03-24 02:53:00
11:53 PM,28.9,12.0,49,30.37,10.0,NNE,4.6,-,N/A,,Clear,20,2014-03-24 03:53:00